OBJECT BH, 61790

Orbit data source: Space-Track

You're viewing an Uncataloged Satellite

Recently launched and/or uncataloged satellites may have evolving metadata. Metadata may include but not limited to: Owner, Maufacturer, Bus, Motor, and Mission.

OBJECT BH, 61790 is a satellite in SSO that was launched on Mon, 04 Nov 2024 UTC via a SOYUZ-2-1B launch vehicle from the Vostochny Cosmodrome (VOSTO). Unknown objects in Earth's orbit typically refer to objects detected orbiting the Earth but have not yet been identified or cataloged. These objects could be anything from previously untracked satellites, spent rocket stages, debris from satellite collisions, or even natural meteoroids temporarily captured by Earth's gravity.

Loading next visibility...
Identifier
61790, 2024-199BH
Orbit
SSO
Country
Flag of TBDTBD
Related business
Manufacturer
Sputniks
Mission
Operational Commercial Communications
Bus & Motor
CUBESAT 3U?, Unknown motor
Mass
3 kg wet, 3 kg dry
Launch date (UTC)
2024-11-04 (1 year ago)
Launch vehicle
SOYUZ-2-1B
Launch site
Vostochny Cosmodrome (VOSTO)
Object type
Unknown
Shape & HBR
Box, 0.1 m
Radar Cross Section
0.035 m², Small (<0.1 m²)

Expand to show TLE details & history
Last TLE update: 8 hours ago

TLE from 8 hours ago
0 OBJECT BH
1 61790U 24199BH  25295.16957003  .00004412  00000-0  39679-3 0  9990
2 61790  97.3394 144.4574 0006669 145.6707 214.4948 14.96110294 96426
Epoch: 2025-10-22T04:04Z
TLE epoch observation values (Epoch: 2025-10-22T04:04:10.850Z)
Latitude
0.00003°
Longitude
52.56516°
Altitude
585.814 km
Speed
7.565 km/s
True Right ascension
09h 37m 49s
True Declination
0° 00' 00"
Sunlit
Object was in daylight at epoch
Visualization orbit readout
Latitude
Unknown
Longitude
Unknown
Altitude
Unknown
Speed
Unknown
Apparent Right ascension
Unknown
Apparent Declination
Unknown
Sunlit
N/A
Visualization observer readout
Local Sidereal Time
07:13:20
Azimuth
Unknown
Elevation
Unknown
Doppler factor
Unknown
Orbital elements
Apogee altitude
580.561 km
Perigee altitude
571.286 km
Semi-major axis
6,954.061 km
Eccentricity
0.00067
Inclination
97.3394°
RAAN
144.4574°
Arg. of periapsis
145.6707°
True anomaly
214.45155°
Mean anomaly
214.4948°
Eccentric anomaly
214.47317°
Mean motion
3.7427 °/min
Orbital period
96.19 mins
BSTAR
0.00039679
Loading maneuver chart data...
Computing Atmospheric mass density...
Loading historical data...
Loading historical data...
Loading historical data...
Loading historical data...
Loading historical data...
Loading historical data...
Loading historical data...

Documentation

Showing up to 5 results
|